sat.trackr.live / text

‹ back to catalog

THAICOM 6

NORAD 39500 · 2014-002A

PAYLOAD ACTIVE UNKNOWN

§ Identity

Operator
Country
THAI
Launch date
2014-01-06
Launch site
AFETR
Launch vehicle
Mass (kg)
RCS (m²)
12.59

Purposes: comms

External: N2YO · Heavens-Above · Gunter

§ Orbital elements

Epoch: 2026-09-12T03:32:21.719904Z

Period
1,436.09 min
Inclination
0.0522°
Eccentricity
0.0003696
Mean motion
1.00272090 rev/d
Perigee alt
35,770.9 km
Apogee alt
35,802.1 km
Semi-major
42,164.6 km
B*
0.0000e+0
RAAN
113.5622°
Arg perigee
39.1417°
Mean anomaly
330.0645°
Rev number
4,633

§ Raw data

THAICOM 61 39500U 14002A   26255.14747361 -.00000136  00000+0  00000+0 0  99962 39500   0.0522 113.5622 0003696  39.1417 330.0645  1.00272090 46335

JSON: /api/v1/satellites/39500 · /tle

For live sub-satellite position, see the globe view (requires WebGL).

§ Visibility from observer

Set your observer location to see the next 7 days of passes ≥ 10°. The values pass through the URL so the page stays shareable.

No JS? Fill the form by hand. The geolocation button needs JavaScript.